User: anonymous   Login
Location: Unspecified
(0.0000°N, 0.0000°E)
Time: 13:29:54
(UTC+00:00)
Language:

Lacrosse 5 - Orbit

View from above orbital plane
View from above orbital plane
View from above satellite
View from above satellite

Ground track
Ground track

The orbit data is extracted from the following two-line orbital elements,

1 28646U 05016A   20048.17221050 0.00000000  00000-0  00000-0 0    03
2 28646  57.0094  88.4554 0003362 170.0902 189.9097 14.51892611    01
Epoch (UTC): 17 February 2020 04:07:58
Eccentricity: 0.0003362
inclination: 57.0094°
perigee height: 717 km
apogee height: 722 km
right ascension of ascending node: 88.4554°
argument of perigee: 170.0902°
revolutions per day: 14.51892611
mean anomaly at epoch: 189.9097°
orbit number at epoch: 0

The dashed part of the orbit path shows where the satellite is in the earth's shadow,  

DLR